Retour au catalogue

STARLINK-3291

ActifCommunicationsVLEO
NORAD 50175·PAYLOAD·🇺🇸 United States

Lancé Dec 18, 2021 depuis Vandenberg Space Force Base

Loading…

Prochains Passages (prochaines 24 heures)

TLE

FraisSource: CelesTrak SupGP

Époque: Sep 15, 2026, 02:08 UTC

1 50175C 21125V   26258.08937500  .00029493  00000+0  84387-3 0  2581
2 50175  53.1584 108.8183 0001243  80.8388  93.3516 15.35381746    11

Suivez STARLINK-3291 en temps réel avec AllMySat

Download on the App Store